Montana Department of Transportation

Main Content

Accidents and Incidents Report

Hourly Weather Roundup

ASUS45 KTFX 100310

RWRMT 

Montana Regional Weather Roundup

National Weather Service Great Falls MT

900 PM MDT THU APR 09 2020



NOTE: "FAIR" indicates few or no clouds below 12,000 feet with no

significant weather and/or obstructions to visibility.



MTZ001.007-043-100400-

West of the divide

  

CITY           SKY/WX    TMP DP  RH WIND       PRES   REMARKS

Kalispell      FAIR      49  25  39 CALM      29.90S                  

Missoula       FAIR      52  28  39 N6        29.92R                  

Butte          FAIR      52  25  35 NW7       29.99R                  

Anaconda         N/A     50  23  34 W5        29.97R                  

Deer Lodge       N/A     54  25  32 NW13      29.97S                  

Hamilton       FAIR      41  32  70 S6        29.94R                  

Mullan Pass    FAIR      42  22  44 VRB5      30.01F                  

Ronan            N/A     55  28  35 S3        29.90F                  

--------------------------------



MTZ008-052.055-100400-

Southwest Montana

  

CITY           SKY/WX    TMP DP  RH WIND       PRES   REMARKS

Bozeman        FAIR      50  27  40 E8        29.93R                  

Dillon         FAIR      51  22  31 E9        29.94R                  

Ennis          FAIR      45  23  42 CALM      30.00R                  

Twin Bridges   FAIR      55  23  28 NE12      29.95R                  

W Yellowstone  FAIR      36  21  55 SW3       29.99R                  

--------------------------------



MTZ009-010-012-014-046-048-049-054-100400-

East Slopes and Central Montana

  

CITY           SKY/WX    TMP DP  RH WIND       PRES   REMARKS

Cut Bank       FAIR      45  26  47 SW8       29.87S                  

Great Falls    FAIR      50  22  33 E8        29.89R                  

Helena         FAIR      56  25  30 W9        29.91R                  

Malmstrom AFB  FAIR      48  22  36 E3        29.90R                  

Bowmans Corner FAIR      47  25  41 N10       29.89S                  

Choteau          N/A     52  23  32 SE5       29.89F                  

Fairfield      FAIR      49  22  34 E6        29.89S                  

Power          FAIR      44  20  38 E7        29.89S                  

Raynesford     FAIR      47  25  42 NE13      29.91R                  

Ulm            FAIR      47  24  40 E7        29.89R                  

White Sulphur    N/A     41  27  56 SE12      29.92S                  

--------------------------------



MTZ011-013-016-021-045-047-050-051-100400-

North Central Montana

  

CITY           SKY/WX    TMP DP  RH WIND       PRES   REMARKS

Havre          FAIR      41  25  53 E8        29.90F                  

Lewistown      FAIR      46  24  42 W3        29.91S                  

Chinook          N/A     45  18  33 CALM      29.92F                  

Denton         FAIR      45  25  46 CALM      29.88S                  

Fort Benton      N/A     50  25  37 N3        29.90                   

Geyser         FAIR      42  24  49 E5        29.91S                  

Grass Range    FAIR      44  27  52 SW10      29.88S                  

Judith Gap     FAIR      39  25  57 S8        29.95R                  

N Bar Ranch    FAIR      45  21  39 S10       29.95F                  

Roy            FAIR      41  26  55 SE14      29.89F                  

Stanford       FAIR      42  28  58 W7        29.92R                  

Winifred       FAIR      39  28  63 E7        29.90F                  

--------------------------------



MTZ017.020-022.027-061-062-100400-

Northeast Montana

  

CITY           SKY/WX    TMP DP  RH WIND       PRES   REMARKS

Glasgow        FAIR      37  14  38 E10       29.97F WCI  30          

Circle           N/A     36  18  48 SE5       30.00S                  

Culbertson       N/A     37   9  30 S6        30.03F                  

Glendive       FAIR      38  11  32 SE5       30.04F                  

Jordan           N/A     41  18  39 SE5       29.96F                  

Malta          CLEAR     37  19  48 E7        29.94SPoplar           N/A     37  14  38 SE6       30.03S                  

Sidney         MOCLDY    37  14  38 CALM      30.05F                  

Wolf Point     FAIR      39  15  37 E5        30.02S                  

--------------------------------



MTZ028.42-056.058-100400-

Southcentral and southeast Montana

  

CITY           SKY/WX    TMP DP  RH WIND       PRES   REMARKS

Baker          FAIR      30  12  47 SE7       30.05F WCI  23          

Big Timber     CLEAR     46  27  46 CALM      29.93R                  

Billings       FAIR      48  21  34 E6        29.95S                  

Hardin         MOCLDY   N/A N/A N/A CALM      29.94R                  

Harlowton      FAIR      44  24  46 NE12      29.94R                  

Laurel           N/A     45  23  42 NE10      29.95R                  

Livingston     FAIR      46  23  40 W6        29.92R                  

Miles City     FAIR      41  13  31 E7        30.00F                  

--------------------------------



Regional Reports...Dakotas/MN

  

CITY           SKY/WX    TMP DP  RH WIND       PRES   REMARKS

Williston      MOCLDY    36   9  32 S8        30.05F WCI  30          

Minot          FAIR      32  17  54 SW8       30.09S WCI  25          

Dickinson      FAIR      28   9  44 S6        30.07S WCI  22          

Beach          FAIR      30  14  51 SE9       30.05F WCI  22          

Crosby         FAIR      30  14  51 S9        30.05F WCI  22          

Hettinger      FAIR      29   8  41 SE8       30.10F WCI  21          

Tioga          FAIR      28  14  54 S9        30.08S WCI  20          

Watford City   FAIR      34  12  40 S7        30.06F WCI  28          

Bismarck       FAIR      29  19  66 S3        30.15S                  

Grand Forks    FAIR      26  23  88 CALM      30.11S                  

Fargo          FAIR      32  26  78 W7        30.12F WCI  26          

Buffalo SD       N/A     33  11  39 SE10      30.05S WCI  25          

Rapid City     FAIR      27  13  55 SE7       30.12R WCI  19          

Intl Falls     CLOUDY    27  17  66 NW12      30.01R WCI  17          

Duluth         FLURRIES  30  18  60 NW13G21   29.96R WCI  20          

Minneapolis    FAIR      34  20  56 NW14      30.06R WCI  25          

--------------------------------



Regional Reports...WY/ID/WA

  

CITY           SKY/WX    TMP DP  RH WIND       PRES   REMARKS

Buffalo WY     FAIR      40  20  44 S12       29.99S                  

Cody           FAIR      49  23  36 CALM      29.98R                  

Gillette       FAIR      37  18  46 S8        30.01F WCI  31          

Powell         FAIR      45  18  33 SE10      29.96R                  

Sheridan       FAIR      46  21  37 SE12      29.96S                  

Yellowstone La   N/A     31  22  69 W5        30.06R                  

Boise          FAIR      64  33  31 CALM      29.89R                  

Couer d'Alene  FAIR      53  31  42 S7        29.94S                  

Idaho Falls    FAIR      60  26  27 CALM      29.95R                  

Salmon         FAIR      55  31  39 E5        29.94R                  

Spokane        FAIR      60  29  30 S7        29.94F                  

Seattle        FAIR      59  36  42 N10       30.05S                  

--------------------------------



Regional Reports...Alberta

  

CITY           SKY/WX    TMP DP  RH WIND       PRES   REMARKS

Calgary        MOCLDY    45  28  53 S6        29.81S                  

Cardston         N/A     48  28  46 SW9         N/A                   

Crowsnest Pass   N/A     43  27  52 NE1         N/A                   

Del Bonita       N/A     41  28  60 SW8         N/A                   

Edmonton       HVY RAIN  41  30  65 W3        29.83                   

Fort McMurray  CLOUDY    43  25  49 W10       29.76R                  

High Level     PTCLDY    36  23  60 NW8       29.93R WCI  29          

Lethbridge     MOCLDY    46  32  57 E7        29.81S                  

Lloydminster   CLOUDY    37  28  70 SW12      29.83F WCI  30          

Medicine Hat   PTCLDY    43  23  45 S6        29.85S                  

Onefour          N/A     37  23  56 E14         N/A  WCI  29          

Peace River    MOCLDY    37  27  65 N6        29.90R                  

Pincher Creek  PTCLDY    48  28  46 W24       29.82F                  

Raymond          N/A     46  34  61 S5          N/A                   

Waterton Gate    N/A     52  23  32 SW14G21     N/A                   

Fort Smith NWT FLURRIES  27  21  80 W23G30    29.83R WCI  12          

--------------------------------



Regional Reports...Saskatchewan

  

CITY           SKY/WX    TMP DP  RH WIND       PRES   REMARKS

Assiniboia       N/A     36  18  48 S7          N/A  WCI  30          

Coronach         N/A     34  16  47 S5          N/A                   

Cypress Hills    N/A     34  14  44 S6          N/A  WCI  29          

Estevan        MOCLDY    30  16  55 S7        30.04F WCI  23          

La Ronge         N/A     34  16  47 S8          N/A  WCI  27          

Moose Jaw        N/A     32  18  55 S6          N/A  WCI  26          

Prince Albert  LGT SNOW  30  25  80 SW10      29.92F WCI  21          

Regina         CLOUDY    32  18  55 S7        29.98F WCI  26          

Rockglen         N/A     34  16  47 SW12        N/A  WCI  25          

Saskatoon      CLOUDY    36  23  60 VRB2      29.91F                  

Swift Current  CLOUDY    36  21  55 S12       29.89F WCI  27          

Val Marie        N/A     36  19  51 SE12        N/A  WCI  27          

--------------------------------